FAISAT

Satellite information

Favourite Embed

Satellite Type and Status

PAYLOADIN ORBIT

Key statistics

Satellite FAISAT at a glance.

Uptime

11231

Days in orbit

Revolutions

≈ 13.7

Per day

Orbit

LEO

Low Earth Orbit

Inclination

82.9

Latest

Satellite identification and parameters

Extended collection of information and parameters for FAISAT.

Object identification

Identified? True

Debris? False

Object name: FAISAT

International designator: 1995-002C

Object number (NORAD): 23465

Object ID (CCSDS): 23465

Country: UNITED STATES OF AMERICA (US)

Current information (Y/N): Y

RCS size: MEDIUM

Orbital parameters

Period: 104.955 minutes

Inclination: 82.9306 deg

SMA: 7370.498 km

Apoapsis: 1020.959 km

Periapsis: 963.767 km

RAAN: 197.8877 deg

Eccentricy: 0.00387975

Argument of periapsis: 103.6165 deg

Mean anomaly: 318.666 deg

Mean motion: 13.72010691 rev/day

Mean motion (dot): 0.00000064 rev/day2

B* drag term: 0.000053495192 1/REarth

Two-line elements (TLE)

Creation date: Oct. 24, 2025, 2:48 a.m.

Reference frame: TEME

Reference center: EARTH

Epoch: Oct. 23, 2025, 4:34 p.m. UTC

TLE line 0: 0 FAISAT

TLE line 1: 1 23465U 95002C 25296.69050697 .00000064 00000-0 53495-4 0 9992

TLE line 2: 2 23465 82.9306 197.8877 0038798 103.6165 318.6660 13.72010691539427

Live tracking on map

Real-time ground track for satellite FAISAT.

In-orbit conjunctions

A list of the most updated potential collisions computed for object FAISAT.

Target Orbit TCA Probability of collision Miss distance Type
FENGYUN 1C DEB SSO 2024-11-21 21:41:27 0.0002484507 281.0 (m) DEBRIS
FENGYUN 1C DEB SSO 2024-09-05 23:09:07 0.0001070237 220.0 (m) DEBRIS
SCOUT X-4 DEB LEO 2024-06-01 22:55:54 0.0001806345 209.0 (m) DEBRIS

Associated space launch

Civilian navigation satellite equivalent to the purely military Parus

FAISAT was lifted into orbit during the mission ‘Kosmos-3M | Tsikada 20’, on board a Kosmos-3M space rocket.

The launch took place on Jan. 24, 1995, 3:54 a.m. from 132/1 (132L).

For more information about the launch, click the button.

Launch to space Kosmos-3M | Tsikada 20
Kosmos-3M | Tsikada 20

Agency: N/A

Status: Launch Successful

Launch date: Jan. 24, 1995, 3:54 a.m. UTC

Rocket: Kosmos-3M

Launch pad: 132/1 (132L)

Location: Plesetsk Cosmodrome, Russian Federation

...

Latest news about this satellite

There are no fresh news available about this satellite. Check back as we update our databases every day.


Newsletter sign-up

Weekly statistics, charts and insights to help you stay on top of the space industry.